Miscellaneous Local Product
Issued by NWS North Platte, NE

Home | Current Version | Previous Version | Graphics & Text | Print | Product List | Glossary On
Versions: 1 2 3 4 5 6 7 8 9 10 11 12 13 14 15 16 17 18 19 20 21 22 23 24 25 26 27 28 29 30 31 32 33 34 35 36 37 38 39 40 41 42 43 44 45 46 47 48 49 50
000
AXUS43 KLBF 040510
MISLBF


WESTERN AND NORTH CENTRAL NEBRASKA HOURLY WEATHER ROUNDUP
NATIONAL WEATHER SERVICE NORTH PLATTE NE
1200 AM CDT WED MAY 04 2016

NOTE: "FAIR" INDICATES FEW OR NO CLOUDS BELOW 12,000 FEET WITH NO
SIGNIFICANT WEATHER AND/OR OBSTRUCTIONS TO VISIBILITY.

NOTE: STATIONS NOT REPORTING VARIABLES SUCH AS SKY/WEATHER OR
PRESSURE ARE PROVIDED BY RAWS AND APRS NETWORKS AND ARE NOT UNDER
NATIONAL WEATHER SERVICE QUALITY CONTROL.

...OBSERVATIONS IN AND NEAR THE EASTERN PANHANDLE OF NEBRASKA...

CITY           SKY/WX    TMP DP  RH WIND       PRES   REMARKS
PINE RIDGE     CLEAR     42  37  82 CALM      30.11S
CHADRON        CLEAR     47  42  83 SW3       30.13S
ALLIANCE       CLEAR     39  36  89 W7        30.14S WCI  34
SIDNEY         CLEAR     41  35  79 NW8       30.18R
CRESCENT LAKE    N/A     51  37  59 NW6         N/A
BIG SPRINGS      N/A     47  40  77 SW3         N/A
$$

...OBSERVATIONS IN NORTHERN NEBRASKA AND FAR SOUTHERN SOUTH DAKOTA...

CITY           SKY/WX    TMP DP  RH WIND       PRES   REMARKS
WINNER         FAIR      57  43  59 N5        30.02R
VALENTINE      CLEAR     51  40  65 NW8       30.05R
THEDFORD       CLEAR     50  42  73 W8        30.07S
AINSWORTH      CLEAR     54  42  63 NW7       30.03R
O`NEILL        CLEAR     53  44  71 N8        29.99R
ORD            CLEAR     50  43  77 NW7       29.96F
BROKEN BOW     CLEAR     55  40  56 NW9       30.01F
VALENTINE NWR    N/A     51  42  71 NW3         N/A
BUTTE            N/A     58  36  44 W5          N/A
HALSEY           N/A     54  39  56 W6          N/A
CHAMBERS         N/A     56  42  60 CALM        N/A
EWING            N/A     56  42  60 N5          N/A
$$

...OBSERVATIONS IN SOUTHWEST NEBRASKA AND FAR NORTHEAST COLORADO...

CITY           SKY/WX    TMP DP  RH WIND       PRES   REMARKS
HOLYOKE        FAIR      50  37  62 W9        30.14S
IMPERIAL       CLEAR     49  38  65 W6        30.11S
OGALLALA       CLEAR     47  37  70 SW3       30.11S
NORTH PLATTE   CLEAR     45  39  79 NW6       30.07S
MCCOOK         CLEAR     46  39  76 W6        30.07R
LEXINGTON      CLEAR     47  42  81 W8        30.04S
PAXTON           N/A     51  41  68 CALM        N/A
STAPLETON        N/A     49  40  71 CALM        N/A
GOTHENBURG       N/A     52  37  57 W5          N/A
CALLAWAY         N/A     54  39  56 NW6         N/A
$$

...OBSERVATIONS IN CENTRAL LINCOLN COUNTY AREA...

CITY           SKY/WX    TMP DP  RH WIND       PRES   REMARKS
N.P. AIRPORT   CLEAR     45  39  79 NW6       30.07S
N.P. DOWNTOWN    N/A     52  40  63 CALM        N/A
N.P. SOUTHEAST   N/A     53  39  60 CALM        N/A
N.P. HILLCREST   N/A     51  39  63 CALM        N/A
$$

...SOME OBSERVATIONS FROM AROUND THE REGION...

CITY           SKY/WX    TMP DP  RH WIND       PRES   REMARKS
DENVER         CLEAR     53  32  44 W6        30.25S
LARAMIE        CLEAR     40  31  70 S9        30.32R WCI  34
CHEYENNE       CLEAR     45  34  65 NW7       30.27R
SCOTTSBLUFF    CLEAR     50  41  71 N5        30.17R
RAPID CITY     CLEAR     52  39  61 NW12      30.11R
BISMARCK       CLEAR     50  30  46 S3        30.07R
PIERRE         CLEAR     52  38  58 N9        30.00R
SIOUX FALLS    CLEAR     51  33  50 N9        29.92R
OMAHA          PTCLDY    62  44  51 W10       29.84F
GRAND ISLAND   CLEAR     54  44  69 W10       29.96F
KANSAS CITY    CLEAR     54  43  66 SW8       29.91F
WICHITA        PTCLDY    56  45  66 W8        30.01S
OKLAHOMA CITY  CLEAR     53  49  86 SW6       30.05S
DALLAS         MOCLDY    64  49  57 CALM      30.07R
AMARILLO       CLEAR     46  36  68 CALM      30.18R
DODGE CITY     CLEAR     47  41  80 W6        30.10S
HAYS           CLEAR     48  37  66 W7        30.05S
GOODLAND       CLEAR     45  37  73 W9        30.13S
$$




USA.gov is the U.S. government's official web portal to all federal, state and local government web resources and services.